Time,TemperatureF,DewpointF,PressureIn,WindDirection,WindDirectionDegrees,WindSpeedMPH,WindSpeedGustMPH,Humidity,HourlyPrecipIn,Conditions,Clouds,dailyrainin,SolarRadiationWatts/m^2,SoftwareType,DateUTC
2013-01-12 00:01:00,44.2,42.0,29.57,South,182,16.0,20.0,91,0.00,,,0.00,0,weatherlink.com 1.10,2013-01-12 06:01:00,
2013-01-12 00:16:00,45.0,42.0,29.58,South,191,16.0,17.0,90,0.00,,,0.00,0,weatherlink.com 1.10,2013-01-12 06:16:00,
2013-01-12 00:31:00,45.7,43.0,29.58,SSW,200,16.0,20.0,89,0.00,,,0.00,0,weatherlink.com 1.10,2013-01-12 06:31:00,
2013-01-12 00:46:00,45.9,43.0,29.58,SSW,195,19.0,22.0,88,0.00,,,0.00,0,weatherlink.com 1.10,2013-01-12 06:46:00,
2013-01-12 01:02:00,45.8,43.0,29.59,SSW,196,16.0,24.0,88,0.00,,,0.00,0,weatherlink.com 1.10,2013-01-12 07:02:00,
2013-01-12 01:17:00,46.0,42.0,29.59,SSW,196,12.0,21.0,87,0.00,,,0.00,0,weatherlink.com 1.10,2013-01-12 07:17:00,
2013-01-12 01:32:00,45.8,43.0,29.59,SSW,194,15.0,21.0,89,0.00,,,0.00,0,weatherlink.com 1.10,2013-01-12 07:32:00,
2013-01-12 01:46:00,45.9,42.0,29.59,SSW,200,17.0,21.0,87,0.00,,,0.00,0,weatherlink.com 1.10,2013-01-12 07:46:00,
2013-01-12 02:02:00,45.9,43.0,29.60,SSW,193,14.0,20.0,88,0.00,,,0.00,0,weatherlink.com 1.10,2013-01-12 08:02:00,
2013-01-12 02:16:00,46.0,42.0,29.60,SSW,198,17.0,20.0,87,0.00,,,0.00,0,weatherlink.com 1.10,2013-01-12 08:16:00,
2013-01-12 02:31:00,46.7,43.0,29.60,SSW,202,18.0,22.0,86,0.00,,,0.00,0,weatherlink.com 1.10,2013-01-12 08:31:00,
2013-01-12 02:47:00,46.9,43.0,29.60,SSW,199,15.0,21.0,86,0.00,,,0.00,0,weatherlink.com 1.10,2013-01-12 08:47:00,
2013-01-12 03:02:00,46.9,43.0,29.61,SSW,202,17.0,21.0,85,0.00,,,0.00,0,weatherlink.com 1.10,2013-01-12 09:02:00,
2013-01-12 03:17:00,46.2,42.0,29.61,SSW,198,13.0,21.0,86,0.00,,,0.00,0,weatherlink.com 1.10,2013-01-12 09:17:00,
2013-01-12 03:31:00,45.8,42.0,29.61,SSW,200,14.0,18.0,87,0.00,,,0.00,0,weatherlink.com 1.10,2013-01-12 09:31:00,
2013-01-12 03:47:00,46.1,43.0,29.62,SSW,198,17.0,19.0,88,0.00,,,0.00,0,weatherlink.com 1.10,2013-01-12 09:47:00,
2013-01-12 04:02:00,47.7,43.0,29.62,SSW,209,14.0,30.0,84,0.00,,,0.00,0,weatherlink.com 1.10,2013-01-12 10:02:00,
2013-01-12 04:16:00,48.3,44.0,29.62,SW,231,17.0,26.0,84,0.00,,,0.00,0,weatherlink.com 1.10,2013-01-12 10:16:00,
2013-01-12 04:31:00,48.2,43.0,29.63,WSW,238,19.0,25.0,83,0.00,,,0.00,0,weatherlink.com 1.10,2013-01-12 10:31:00,
2013-01-12 04:46:00,47.6,43.0,29.64,SW,232,17.0,25.0,84,0.00,,,0.00,0,weatherlink.com 1.10,2013-01-12 10:46:00,
2013-01-12 05:02:00,46.7,42.0,29.65,SW,236,12.0,22.0,84,0.00,,,0.00,0,weatherlink.com 1.10,2013-01-12 11:02:00,
2013-01-12 05:16:00,45.7,40.0,29.67,West,275,11.0,33.0,81,0.00,,,0.00,0,weatherlink.com 1.10,2013-01-12 11:16:00,
2013-01-12 05:33:00,40.4,36.0,29.69,West,269,9.0,24.0,85,0.00,,,0.00,0,weatherlink.com 1.10,2013-01-12 11:33:00,
2013-01-12 05:48:00,38.7,35.0,29.70,West,270,17.0,25.0,85,0.00,,,0.00,0,weatherlink.com 1.10,2013-01-12 11:48:00,
2013-01-12 06:02:00,37.4,33.0,29.71,WSW,246,10.0,26.0,84,0.00,,,0.00,0,weatherlink.com 1.10,2013-01-12 12:02:00,
2013-01-12 06:18:00,36.2,32.0,29.72,West,259,12.0,37.0,84,0.00,,,0.00,0,weatherlink.com 1.10,2013-01-12 12:18:00,
2013-01-12 06:33:00,35.6,32.0,29.73,West,263,14.0,30.0,85,0.00,,,0.00,0,weatherlink.com 1.10,2013-01-12 12:33:00,
2013-01-12 06:48:00,35.0,31.0,29.75,West,267,8.0,19.0,86,0.00,,,0.00,0,weatherlink.com 1.10,2013-01-12 12:48:00,
2013-01-12 07:03:00,34.4,31.0,29.76,West,270,6.0,23.0,86,0.00,,,0.00,0,weatherlink.com 1.10,2013-01-12 13:03:00,
2013-01-12 07:18:00,33.5,30.0,29.78,West,281,10.0,26.0,86,0.00,,,0.00,0,weatherlink.com 1.10,2013-01-12 13:18:00,
2013-01-12 07:34:00,33.2,30.0,29.79,West,263,9.0,25.0,86,0.00,,,0.00,0,weatherlink.com 1.10,2013-01-12 13:34:00,
2013-01-12 07:48:00,32.1,28.0,29.80,West,270,8.0,23.0,84,0.00,,,0.00,12,weatherlink.com 1.10,2013-01-12 13:48:00,
2013-01-12 08:03:00,31.6,28.0,29.81,West,267,8.0,18.0,85,0.00,,,0.00,23,weatherlink.com 1.10,2013-01-12 14:03:00,
2013-01-12 08:18:00,31.1,27.0,29.82,WNW,286,11.0,22.0,83,0.00,,,0.00,44,weatherlink.com 1.10,2013-01-12 14:18:00,
2013-01-12 08:33:00,30.4,26.0,29.84,West,271,12.0,19.0,83,0.00,,,0.00,72,weatherlink.com 1.10,2013-01-12 14:33:00,
2013-01-12 08:48:00,29.9,25.0,29.84,WSW,257,12.0,20.0,82,0.00,,,0.00,104,weatherlink.com 1.10,2013-01-12 14:48:00,
2013-01-12 09:03:00,29.4,25.0,29.85,West,271,10.0,16.0,82,0.00,,,0.00,178,weatherlink.com 1.10,2013-01-12 15:03:00,
2013-01-12 09:18:00,29.7,25.0,29.86,West,261,17.0,19.0,81,0.00,,,0.00,239,weatherlink.com 1.10,2013-01-12 15:18:00,
2013-01-12 09:33:00,29.1,24.0,29.87,West,276,8.0,15.0,81,0.00,,,0.00,118,weatherlink.com 1.10,2013-01-12 15:33:00,
2013-01-12 09:48:00,28.8,24.0,29.88,WNW,290,9.0,18.0,83,0.00,,,0.00,128,weatherlink.com 1.10,2013-01-12 15:48:00,
2013-01-12 10:03:00,28.5,24.0,29.89,WNW,292,11.0,20.0,82,0.00,,,0.00,165,weatherlink.com 1.10,2013-01-12 16:03:00,
2013-01-12 10:18:00,28.8,24.0,29.88,West,273,6.0,19.0,82,0.00,,,0.00,141,weatherlink.com 1.10,2013-01-12 16:18:00,
2013-01-12 10:33:00,28.7,23.0,29.89,West,269,6.0,14.0,78,0.00,,,0.00,250,weatherlink.com 1.10,2013-01-12 16:33:00,
2013-01-12 10:48:00,28.5,22.0,29.89,SW,228,12.0,19.0,77,0.00,,,0.00,403,weatherlink.com 1.10,2013-01-12 16:48:00,
2013-01-12 11:03:00,28.6,22.0,29.89,WSW,254,6.0,16.0,77,0.00,,,0.00,524,weatherlink.com 1.10,2013-01-12 17:03:00,
2013-01-12 11:18:00,28.8,22.0,29.89,WNW,287,13.0,17.0,77,0.00,,,0.00,288,weatherlink.com 1.10,2013-01-12 17:18:00,
2013-01-12 11:33:00,28.6,22.0,29.89,WSW,252,5.0,15.0,76,0.00,,,0.00,200,weatherlink.com 1.10,2013-01-12 17:33:00,
2013-01-12 11:48:00,28.7,23.0,29.90,WSW,237,12.0,15.0,78,0.00,,,0.00,253,weatherlink.com 1.10,2013-01-12 17:48:00,
2013-01-12 12:03:00,28.7,22.0,29.89,WSW,254,9.0,15.0,77,0.00,,,0.00,227,weatherlink.com 1.10,2013-01-12 18:03:00,
2013-01-12 12:18:00,29.3,24.0,29.90,West,276,13.0,15.0,79,0.00,,,0.00,285,weatherlink.com 1.10,2013-01-12 18:18:00,
2013-01-12 12:33:00,28.8,23.0,29.90,SW,234,11.0,17.0,79,0.00,,,0.00,316,weatherlink.com 1.10,2013-01-12 18:33:00,
2013-01-12 12:48:00,28.9,23.0,29.91,WSW,258,11.0,17.0,77,0.00,,,0.00,250,weatherlink.com 1.10,2013-01-12 18:48:00,
2013-01-12 13:03:00,29.1,23.0,29.91,SW,235,14.0,18.0,77,0.00,,,0.00,262,weatherlink.com 1.10,2013-01-12 19:03:00,
2013-01-12 13:18:00,29.1,22.0,29.90,WSW,244,11.0,15.0,74,0.00,,,0.00,179,weatherlink.com 1.10,2013-01-12 19:18:00,
2013-01-12 13:33:00,28.9,22.0,29.90,West,264,5.0,15.0,74,0.00,,,0.00,209,weatherlink.com 1.10,2013-01-12 19:33:00,
2013-01-12 13:48:00,28.8,22.0,29.90,WSW,252,8.0,14.0,77,0.00,,,0.00,146,weatherlink.com 1.10,2013-01-12 19:48:00,
2013-01-12 14:03:00,28.6,22.0,29.91,SW,229,11.0,15.0,77,0.00,,,0.00,120,weatherlink.com 1.10,2013-01-12 20:03:00,
2013-01-12 14:18:00,28.3,22.0,29.93,West,263,12.0,16.0,77,0.00,,,0.00,83,weatherlink.com 1.10,2013-01-12 20:18:00,
2013-01-12 14:33:00,28.0,22.0,29.93,WSW,255,8.0,11.0,77,0.00,,,0.00,60,weatherlink.com 1.10,2013-01-12 20:33:00,
2013-01-12 14:49:00,27.9,22.0,29.93,West,260,8.0,9.0,79,0.00,,,0.00,56,weatherlink.com 1.10,2013-01-12 20:49:00,
2013-01-12 15:04:00,27.5,21.0,29.94,WNW,302,10.0,17.0,77,0.00,,,0.00,47,weatherlink.com 1.10,2013-01-12 21:04:00,
2013-01-12 15:19:00,27.2,21.0,29.94,West,269,7.0,13.0,77,0.00,,,0.00,32,weatherlink.com 1.10,2013-01-12 21:19:00,
2013-01-12 15:34:00,26.9,21.0,29.96,WSW,252,10.0,14.0,77,0.00,,,0.00,37,weatherlink.com 1.10,2013-01-12 21:34:00,
2013-01-12 15:49:00,26.6,20.0,29.96,WNW,290,5.0,14.0,76,0.00,,,0.00,23,weatherlink.com 1.10,2013-01-12 21:49:00,
2013-01-12 16:04:00,26.5,20.0,29.96,West,270,5.0,14.0,77,0.00,,,0.00,19,weatherlink.com 1.10,2013-01-12 22:04:00,
2013-01-12 16:19:00,26.1,20.0,29.96,West,276,6.0,13.0,77,0.00,,,0.00,11,weatherlink.com 1.10,2013-01-12 22:19:00,
2013-01-12 16:34:00,26.0,20.0,29.94,WNW,285,11.0,15.0,78,0.00,,,0.00,9,weatherlink.com 1.10,2013-01-12 22:34:00,
2013-01-12 16:49:00,25.9,20.0,29.93,WNW,289,13.0,16.0,78,0.00,,,0.00,0,weatherlink.com 1.10,2013-01-12 22:49:00,
2013-01-12 17:04:00,25.8,21.0,29.92,NW,304,9.0,13.0,81,0.00,,,0.00,0,weatherlink.com 1.10,2013-01-12 23:04:00,
2013-01-12 17:19:00,25.7,20.0,29.90,NW,307,11.0,16.0,78,0.00,,,0.00,0,weatherlink.com 1.10,2013-01-12 23:19:00,
2013-01-12 17:34:00,25.4,19.0,29.91,WNW,302,10.0,17.0,78,0.00,,,0.00,0,weatherlink.com 1.10,2013-01-12 23:34:00,
2013-01-12 17:49:00,25.2,19.0,29.91,WNW,294,12.0,14.0,78,0.00,,,0.00,0,weatherlink.com 1.10,2013-01-12 23:49:00,
2013-01-12 18:04:00,25.1,19.0,29.94,WNW,290,10.0,20.0,77,0.00,,,0.00,0,weatherlink.com 1.10,2013-01-13 00:04:00,
2013-01-12 18:19:00,24.7,18.0,29.94,WNW,287,12.0,14.0,75,0.00,,,0.00,0,weatherlink.com 1.10,2013-01-13 00:19:00,
2013-01-12 18:34:00,24.7,19.0,29.94,WNW,290,8.0,14.0,79,0.00,,,0.00,0,weatherlink.com 1.10,2013-01-13 00:34:00,
2013-01-12 18:49:00,24.7,19.0,29.93,NW,308,13.0,16.0,80,0.00,,,0.00,0,weatherlink.com 1.10,2013-01-13 00:49:00,
2013-01-12 19:04:00,24.5,19.0,29.95,WNW,290,12.0,16.0,78,0.00,,,0.00,0,weatherlink.com 1.10,2013-01-13 01:04:00,
2013-01-12 19:19:00,24.2,19.0,29.96,WNW,291,12.0,16.0,79,0.00,,,0.00,0,weatherlink.com 1.10,2013-01-13 01:19:00,
2013-01-12 19:34:00,24.0,17.0,29.98,WNW,291,14.0,17.0,76,0.00,,,0.00,0,weatherlink.com 1.10,2013-01-13 01:34:00,
2013-01-12 19:49:00,24.0,18.0,29.98,WNW,292,13.0,17.0,77,0.00,,,0.00,0,weatherlink.com 1.10,2013-01-13 01:49:00,
2013-01-12 20:04:00,23.9,18.0,29.98,WNW,296,12.0,18.0,77,0.00,,,0.00,0,weatherlink.com 1.10,2013-01-13 02:04:00,
2013-01-12 20:19:00,23.9,18.0,29.99,WNW,295,10.0,15.0,78,0.00,,,0.00,0,weatherlink.com 1.10,2013-01-13 02:19:00,
2013-01-12 20:34:00,23.7,18.0,30.00,WNW,290,10.0,14.0,78,0.00,,,0.00,0,weatherlink.com 1.10,2013-01-13 02:34:00,
2013-01-12 20:49:00,23.3,18.0,29.98,NW,312,14.0,15.0,80,0.00,,,0.00,0,weatherlink.com 1.10,2013-01-13 02:49:00,
2013-01-12 21:04:00,22.9,17.0,29.96,NW,317,10.0,14.0,78,0.00,,,0.00,0,weatherlink.com 1.10,2013-01-13 03:04:00,
2013-01-12 21:19:00,22.8,17.0,29.94,NW,310,10.0,13.0,79,0.00,,,0.00,0,weatherlink.com 1.10,2013-01-13 03:19:00,
2013-01-12 21:34:00,22.7,18.0,29.93,NW,323,13.0,15.0,82,0.00,,,0.00,0,weatherlink.com 1.10,2013-01-13 03:34:00,
2013-01-12 21:49:00,22.2,18.0,29.93,NW,321,14.0,16.0,83,0.00,,,0.00,0,weatherlink.com 1.10,2013-01-13 03:49:00,
2013-01-12 22:04:00,21.9,18.0,29.93,NNW,327,16.0,17.0,86,0.00,,,0.00,0,weatherlink.com 1.10,2013-01-13 04:04:00,
2013-01-12 22:19:00,21.3,18.0,29.91,North,355,6.0,18.0,88,0.00,,,0.00,0,weatherlink.com 1.10,2013-01-13 04:19:00,
2013-01-12 22:34:00,20.8,18.0,29.91,NW,323,15.0,17.0,90,0.00,,,0.00,0,weatherlink.com 1.10,2013-01-13 04:34:00,
2013-01-12 22:49:00,20.5,18.0,29.91,NW,323,13.0,21.0,90,0.00,,,0.00,0,weatherlink.com 1.10,2013-01-13 04:49:00,
2013-01-12 23:04:00,20.6,18.0,29.91,NW,319,14.0,16.0,90,0.00,,,0.00,0,weatherlink.com 1.10,2013-01-13 05:04:00,
2013-01-12 23:20:00,20.9,18.0,29.95,WNW,301,15.0,19.0,88,0.00,,,0.00,0,weatherlink.com 1.10,2013-01-13 05:20:00,
2013-01-12 23:35:00,21.1,18.0,29.94,NW,313,16.0,21.0,86,0.00,,,0.00,0,weatherlink.com 1.10,2013-01-13 05:35:00,
2013-01-12 23:50:00,20.4,17.0,29.94,NNW,348,9.0,16.0,87,0.00,,,0.00,0,weatherlink.com 1.10,2013-01-13 05:50:00,